RH
8 8 7 7 7 9 8 8 9 8 7 7 6 5 6 6 6 7 8 8 8 12 14 11 8 13 21 24 24 21 22 25 27 32 38 44 43 38 37 39 39 40 41 41 40 43 44 42 40 40 41 41 39 39 37 36 36 37 39 41 42 42 41 40 40 39 41 40 36 30 27 25 24 24 24 25 27 29 33 34 34 26 23 31 37 37 29 25 28 27 26 27 27 28 27 25 22
8 8 7 7 7 10 9 7 8 9 7 6 6 6 6 6 6 7 8 8 9 11 11 9 8 14 21 24 26 28 30 29 30 34 41 45 44 41 39 40 39 41 43 41 43 46 45 42 40 40 40 40 39 38 38 39 38 36 36 38 39 40 41 42 42 42 42 41 36 30 27 25 24 24 25 27 29 33 37 35 33 31 30 37 38 32 27 29 32 31 29 29 28 30 29 26 23
8 8 8 8 8 10 8 6 7 7 7 6 6 7 6 5 6 7 7 7 8 9 9 9 10 17 23 28 31 34 38 35 33 36 42 45 44 41 39 41 42 46 48 44 46 48 45 42 39 38 38 39 38 38 39 40 39 37 36 36 36 38 41 44 44 43 43 41 35 30 27 24 23 24 26 29 32 36 41 42 37 33 34 36 36 35 37 36 37 35 32 31 31 31 30 26 23
8 8 10 10 8 8 8 7 7 6 6 5 6 7 6 6 7 7 8 7 8 8 9 9 13 22 27 33 35 35 37 37 37 40 43 44 43 42 43 45 47 51 52 49 49 50 46 41 37 35 37 38 38 40 41 42 40 38 37 35 34 36 42 45 45 45 45 41 34 29 26 24 26 27 29 30 33 38 42 46 41 35 35 38 41 44 45 45 44 40 35 33 33 32 30 28 25
8 9 9 10 9 9 10 8 7 6 6 6 6 7 6 7 7 7 7 7 8 8 9 10 16 27 29 32 34 34 37 39 40 39 41 44 45 47 48 49 50 53 54 52 52 51 45 38 36 34 36 38 40 43 44 44 43 40 38 35 33 35 41 44 45 47 46 40 31 28 29 29 32 33 34 33 32 38 43 45 41 41 43 44 46 45 46 48 46 43 39 36 35 35 32 29 27
10 10 9 10 10 9 9 8 7 6 6 6 5 6 7 7 8 7 8 8 8 8 10 12 18 28 31 33 35 36 39 40 41 39 41 45 45 47 49 50 52 54 54 52 52 50 43 38 36 34 37 39 42 45 46 47 45 42 39 36 32 34 41 43 45 47 43 37 31 32 35 36 39 40 39 37 33 38 45 46 44 48 50 49 49 48 49 47 46 45 43 42 39 37 34 31 29
11 10 8 9 9 8 10 8 6 6 6 6 5 7 7 8 9 8 9 10 9 9 12 15 17 27 35 36 37 40 42 42 40 40 42 43 45 46 46 49 52 53 52 50 51 48 43 39 37 36 39 41 44 46 47 47 46 44 41 37 33 35 39 44 45 43 39 36 35 38 41 41 43 46 44 39 36 38 44 48 49 51 51 50 51 52 51 46 46 48 46 46 43 40 37 34 32
11 10 8 9 10 8 9 8 6 6 7 6 6 7 7 9 9 9 11 11 11 10 13 15 15 26 38 36 37 43 44 43 41 42 44 42 45 47 45 47 51 52 51 49 49 47 42 41 40 40 40 42 45 47 48 47 46 45 42 39 35 37 40 43 43 39 38 39 40 41 46 47 44 48 49 42 41 40 42 49 51 51 51 50 52 55 53 47 46 48 47 46 45 44 41 37 36
10 10 7 9 11 9 8 7 6 6 6 6 6 8 8 9 10 9 10 11 11 10 11 13 14 28 38 37 40 43 46 46 44 44 44 42 43 46 43 43 48 50 49 47 47 45 42 42 42 42 42 44 47 48 48 46 46 44 44 41 38 41 42 41 40 39 40 40 39 39 47 53 43 46 53 47 44 44 42 46 51 51 51 52 55 57 54 48 47 49 48 47 46 47 45 42 39
9 9 8 9 10 8 8 7 7 6 6 6 7 8 10 10 10 10 12 14 12 10 11 13 17 30 38 39 42 44 47 48 45 43 41 39 40 42 41 42 45 47 48 47 46 43 42 44 44 44 45 46 48 49 48 46 45 45 46 46 42 43 42 39 38 38 38 37 36 35 42 48 42 47 54 48 45 47 45 44 49 52 52 55 56 57 54 48 47 49 50 50 50 50 49 46 42
9 8 8 9 9 8 8 7 7 7 6 6 7 9 10 10 11 13 15 16 13 11 11 16 20 29 38 41 44 48 49 47 43 42 40 37 39 40 41 42 43 45 47 47 45 44 44 47 46 47 48 49 49 49 48 47 47 48 51 50 44 43 41 39 39 37 38 37 35 35 38 40 42 48 49 47 46 47 49 46 49 54 54 56 57 56 52 47 47 49 51 51 51 50 50 49 45
11 9 7 9 9 8 8 7 7 7 6 6 8 9 9 10 12 13 16 16 15 13 12 19 28 33 40 42 45 50 50 45 40 40 39 38 39 40 41 42 42 44 45 45 47 45 46 50 51 51 51 51 50 49 49 49 51 53 54 51 44 42 42 41 41 40 41 38 36 38 40 41 44 47 46 47 47 48 51 48 49 54 54 56 57 56 51 48 48 48 49 51 51 52 53 52 49
11 10 8 9 9 8 7 7 7 6 6 8 9 9 9 10 12 13 15 18 16 14 14 22 32 36 41 44 47 50 48 44 39 40 40 38 40 40 41 42 42 44 45 45 47 47 49 52 55 56 54 52 51 51 52 54 55 54 55 49 43 44 45 44 43 42 42 41 43 44 43 45 46 47 47 47 47 50 53 51 50 51 54 56 57 56 51 49 50 48 49 51 54 55 55 54 53
10 10 9 9 9 7 6 7 7 6 8 10 9 9 10 10 13 15 15 19 19 19 21 25 30 35 41 45 47 47 46 44 40 41 40 38 39 40 41 42 43 44 45 46 47 50 55 56 58 59 56 54 55 55 57 57 55 55 54 48 45 46 45 44 43 43 45 47 50 50 47 47 47 46 45 45 48 51 52 53 54 51 53 56 56 54 51 49 50 50 52 53 53 56 57 56 55
9 9 9 10 8 7 6 8 7 7 10 11 10 10 10 10 13 16 16 21 26 26 25 26 30 35 42 44 45 45 45 45 43 42 40 39 39 40 41 43 43 43 43 47 52 56 60 60 58 58 58 59 61 61 60 57 54 55 53 48 47 47 44 42 43 47 50 54 56 54 50 49 49 48 47 47 50 53 53 54 56 54 52 54 55 53 51 50 50 52 55 55 53 55 58 59 57
9 8 10 10 8 7 7 7 7 8 11 11 10 10 10 11 13 17 20 23 29 29 27 28 31 36 41 43 45 44 45 45 43 44 42 41 40 41 42 43 44 43 44 48 54 59 61 61 58 59 61 62 64 63 61 58 57 57 52 49 49 46 43 44 48 52 54 56 56 53 53 54 52 51 51 52 53 55 55 56 58 57 54 53 55 54 51 51 52 53 55 57 60 59 57 61 62
9 9 10 10 7 8 8 8 8 9 12 11 10 11 11 12 12 16 21 26 28 27 30 32 34 40 43 41 43 42 44 44 42 45 45 43 42 41 41 42 44 44 47 51 56 59 59 60 60 60 62 62 62 60 61 62 60 58 55 52 50 48 47 49 53 56 56 56 54 55 57 57 55 56 59 60 61 61 59 58 59 59 57 54 55 54 52 52 52 51 54 60 66 61 55 65 70
9 9 11 9 8 8 9 8 8 9 11 11 11 11 12 13 13 15 18 25 28 27 31 35 38 43 44 42 42 41 43 43 42 44 45 43 42 41 39 41 43 45 48 52 57 59 58 60 59 57 57 58 58 59 63 65 64 60 56 55 54 52 51 53 57 59 58 57 58 60 61 60 60 64 69 70 71 71 65 61 60 58 55 53 54 53 53 55 55 54 58 62 64 59 58 71 76
9 11 11 10 10 9 9 8 7 8 10 10 11 11 12 13 13 15 17 21 26 29 32 35 39 41 40 39 39 42 43 43 42 43 45 44 42 41 40 41 44 46 49 52 57 58 58 58 56 53 54 57 58 61 63 65 65 57 54 56 56 54 54 58 61 62 62 61 65 66 64 65 67 67 71 73 74 74 70 65 61 57 54 54 54 53 55 58 60 62 61 62 64 67 69 74 77
9 11 11 10 10 9 8 7 7 8 9 10 11 12 13 14 13 15 19 19 22 31 34 33 37 38 38 38 38 43 44 43 44 44 45 43 41 41 42 43 45 48 49 51 55 56 57 57 55 53 53 59 62 63 64 65 64 58 56 57 57 57 58 62 63 64 65 63 66 69 67 68 69 67 68 71 73 74 71 66 62 59 59 59 57 57 58 59 63 65 63 65 71 77 77 74 77
10 10 10 11 9 8 8 8 8 8 9 10 11 12 13 15 14 15 18 20 21 32 39 35 36 38 39 39 38 42 44 44 45 45 45 42 40 40 41 43 46 50 50 50 52 51 53 55 54 53 53 60 64 65 66 66 63 60 59 58 59 61 61 64 65 66 68 65 67 72 71 69 69 69 71 74 75 73 70 67 65 64 64 62 61 63 63 61 63 65 66 71 75 78 80 76 77
11 9 9 10 8 9 10 8 8 8 8 11 11 12 14 14 14 15 17 19 19 26 36 37 36 38 41 41 40 43 45 45 45 45 44 40 38 38 40 42 45 48 49 49 49 49 52 53 51 51 56 60 64 67 66 63 63 62 61 62 63 62 62 64 65 68 70 71 76 76 72 69 67 69 71 74 76 74 72 72 71 68 65 63 63 65 64 62 65 67 69 73 76 79 81 80 78
10 10 10 9 8 9 10 8 9 8 8 11 12 13 13 13 14 15 16 18 19 23 30 34 35 38 42 44 45 45 45 46 45 44 43 41 40 41 42 44 46 48 49 50 50 51 51 53 53 53 57 61 62 64 63 62 64 64 62 64 65 63 62 62 63 66 69 72 78 77 71 68 67 68 70 72 74 74 72 70 69 67 65 64 63 64 64 64 69 73 72 73 76 79 81 83 81
10 11 11 9 9 9 8 9 9 8 9 10 12 12 12 13 14 15 17 18 20 24 29 32 35 40 45 46 46 45 44 45 45 44 44 43 45 46 45 47 49 49 49 50 53 53 50 52 56 54 56 60 61 60 63 66 67 66 64 63 64 64 63 65 65 65 67 71 77 77 73 70 70 72 72 71 72 71 68 66 67 67 65 64 64 65 66 66 68 72 74 74 75 75 79 81 80
9 10 11 9 9 9 9 9 8 9 9 9 11 12 12 13 14 15 16 18 20 25 29 32 37 43 46 45 44 43 43 44 45 45 45 47 50 49 48 48 48 49 48 52 56 55 52 55 59 58 59 59 60 64 66 70 69 65 64 64 64 65 65 66 66 64 65 68 73 73 71 71 73 75 74 71 70 68 67 70 71 71 69 68 66 66 68 67 66 70 73 74 72 73 77 77 76
10 9 10 9 9 10 9 9 9 10 9 9 10 11 14 13 14 15 16 20 24 28 30 32 38 45 46 45 45 44 44 45 46 47 48 52 51 47 49 51 51 52 52 56 59 57 56 59 64 66 65 65 67 71 70 70 67 62 64 66 65 64 63 63 64 66 66 66 69 70 69 70 72 74 72 69 68 69 72 75 74 73 72 71 70 69 68 68 67 69 72 72 71 72 74 73 74
12 10 10 10 10 10 10 9 9 9 9 8 9 11 14 14 14 16 20 26 27 30 32 32 37 42 44 45 44 43 44 45 48 52 54 54 51 52 58 59 58 57 59 63 63 63 61 63 70 72 68 69 73 72 71 71 66 61 65 68 67 64 62 61 63 66 68 69 70 70 69 71 73 72 70 67 68 72 75 76 75 75 75 75 76 73 71 70 68 67 68 70 70 70 71 71 72
11 10 10 9 10 10 9 9 10 9 9 9 9 11 13 13 14 15 21 27 28 30 32 34 36 38 43 43 40 42 45 50 56 58 55 49 48 54 58 59 63 65 70 75 71 71 70 71 74 72 67 68 72 71 71 72 64 60 65 68 69 66 62 62 64 66 67 68 70 70 72 74 73 70 68 69 72 75 76 77 77 77 76 75 74 72 70 69 67 66 66 66 65 66 68 68 70
10 9 10 11 11 10 10 10 10 9 10 10 9 11 12 12 15 16 18 24 27 28 30 33 35 37 41 41 41 46 50 54 57 52 46 45 50 56 58 63 72 77 83 85 81 80 80 78 74 68 67 69 72 71 70 69 62 60 65 68 69 68 65 65 65 66 67 68 70 72 74 73 71 69 70 73 73 74 75 76 76 73 70 68 66 65 65 65 65 65 63 62 61 62 64 66 68
10 11 11 13 12 11 12 12 10 9 10 9 9 11 12 13 14 16 19 23 27 27 28 31 33 38 41 40 45 51 50 50 48 44 44 49 55 57 57 58 61 69 83 91 88 86 84 79 73 70 71 73 72 71 70 68 61 61 67 68 69 66 66 68 66 66 70 71 72 73 73 72 70 71 72 73 71 70 69 69 70 65 60 59 59 61 62 62 61 61 60 58 59 61 62 64 68
12 13 13 12 13 14 13 12 10 10 10 10 10 11 13 15 15 15 20 25 27 26 27 29 31 37 41 41 46 50 48 47 44 44 48 48 48 48 46 43 41 47 67 85 87 88 89 82 77 76 75 74 73 72 71 67 62 64 68 69 69 65 65 67 65 68 72 72 72 71 71 71 71 72 70 69 67 63 60 59 60 57 53 54 56 58 57 56 56 57 58 57 58 61 63 66 69
14 14 15 13 13 15 14 12 11 11 12 11 10 11 13 15 14 15 20 25 27 27 27 29 30 37 43 44 47 49 47 47 45 46 48 43 40 41 39 33 32 39 52 72 84 88 91 87 81 78 76 74 73 71 69 66 65 67 69 70 68 65 64 65 65 70 74 72 72 70 69 71 71 70 66 63 59 57 56 53 50 48 49 51 51 51 52 55 55 54 54 56 57 60 62 66 69
16 15 17 17 15 15 14 13 12 11 12 12 12 13 14 15 14 13 17 22 25 26 27 29 31 37 44 44 47 49 44 46 46 48 49 43 40 40 36 29 30 40 46 59 78 83 82 85 83 77 75 75 72 69 66 66 69 69 68 68 67 66 64 64 67 72 75 73 71 68 67 69 68 64 60 56 53 52 53 49 45 44 45 48 48 49 52 56 54 51 51 53 56 59 61 63 65
18 16 16 17 16 15 15 14 13 12 13 13 13 13 14 14 14 13 14 18 21 24 27 30 31 36 42 43 47 48 41 43 45 48 48 43 43 42 34 31 32 36 43 52 68 76 77 81 82 77 75 74 70 67 65 68 72 70 67 66 67 67 65 66 70 74 75 71 67 65 64 65 62 58 54 51 49 47 46 45 47 50 51 51 52 53 54 54 53 51 51 52 54 58 61 61 62
20 19 18 18 18 16 16 16 14 13 14 14 13 14 13 13 13 14 14 15 18 20 23 28 30 33 39 42 47 47 38 39 42 45 47 43 46 44 32 32 32 32 41 49 58 69 78 81 80 77 74 70 69 66 65 70 74 69 66 66 69 69 66 67 72 75 74 69 66 63 61 59 56 54 52 48 46 43 42 43 48 53 54 54 56 57 56 54 53 53 51 51 53 57 60 60 61
19 19 19 20 20 18 17 16 15 15 15 14 14 14 14 13 13 14 14 14 16 18 19 22 27 29 34 38 45 46 39 39 42 42 44 43 44 41 32 32 34 34 41 48 54 67 77 80 78 75 70 68 70 68 65 70 74 70 66 69 73 73 68 65 69 72 70 68 65 60 57 55 52 51 48 45 43 40 40 41 44 48 50 52 55 57 58 57 54 52 52 52 53 55 58 58 60
19 19 20 21 21 20 19 19 17 15 16 15 14 14 14 13 13 14 15 15 15 16 17 18 22 25 27 31 37 42 40 43 45 41 41 45 46 41 35 37 38 38 41 43 52 65 72 74 74 71 68 68 71 68 66 70 74 69 67 71 72 72 69 63 64 67 67 66 63 57 54 51 48 46 44 43 41 40 41 42 44 46 50 51 53 55 57 58 55 52 53 53 53 56 56 57 61
20 20 21 21 22 21 21 21 19 16 16 16 15 15 14 13 13 14 15 16 15 15 16 17 20 23 24 26 31 34 36 42 44 41 41 46 49 45 39 40 41 38 39 39 46 61 69 72 70 69 68 69 70 68 69 73 74 70 70 72 70 71 68 62 62 63 62 61 57 53 50 47 46 46 47 47 44 42 43 44 43 44 49 52 54 55 56 57 55 52 53 53 54 57 56 56 60
23 21 21 22 23 22 22 22 19 17 17 18 17 17 15 14 13 14 15 16 16 15 16 16 19 23 23 24 31 32 32 36 39 38 40 44 48 48 42 42 43 38 37 38 44 55 65 68 68 67 68 71 71 71 73 77 77 74 73 73 71 70 65 61 62 61 59 56 52 50 48 47 49 51 53 51 46 44 43 42 42 44 49 53 55 55 54 54 53 52 53 53 54 56 56 55 57
24 22 21 23 24 23 26 24 20 19 19 17 18 18 16 15 14 14 14 15 16 15 16 17 17 22 23 22 30 34 30 32 35 34 37 40 46 49 45 45 48 44 39 39 42 50 58 62 67 69 69 72 72 70 75 79 79 77 74 73 71 67 62 60 60 59 55 53 51 50 50 49 52 54 53 50 46 43 40 41 43 46 49 52 54 54 52 52 50 50 53 54 54 57 57 57 56
23 23 23 25 25 25 25 23 20 20 19 18 19 19 17 16 15 14 14 15 15 14 15 16 16 19 22 22 28 32 31 32 34 33 34 38 43 48 48 47 49 49 45 41 40 44 52 57 62 67 69 70 67 66 73 78 77 78 76 73 68 64 63 60 58 55 52 53 54 53 51 50 50 52 50 49 47 43 40 41 43 45 46 47 50 52 51 50 47 47 50 51 53 56 56 55 53
21 23 24 25 25 24 22 21 20 19 19 21 21 20 21 20 18 16 17 17 15 15 15 15 15 16 18 21 25 29 31 32 34 34 34 37 42 47 51 50 47 47 49 47 40 39 47 54 58 63 67 67 64 63 70 75 76 77 76 70 64 63 64 60 57 55 53 56 57 55 53 51 50 49 48 48 47 42 41 42 41 42 42 42 44 46 48 48 47 46 46 49 52 54 55 54 51
21 24 24 23 22 21 21 21 22 20 21 24 22 20 23 24 23 21 20 18 16 17 17 16 16 16 16 18 22 28 32 31 33 35 35 37 41 47 51 52 51 49 52 51 47 41 44 53 58 61 67 67 63 62 67 74 74 73 73 67 62 62 62 58 58 58 58 59 57 56 55 52 50 48 47 47 45 43 43 43 42 42 42 40 38 37 39 43 47 48 45 47 52 54 55 56 53
24 25 21 21 20 20 22 21 21 21 22 24 21 19 21 21 23 23 22 20 18 20 22 21 21 20 19 19 21 26 33 34 32 34 36 36 40 47 52 55 55 55 54 52 51 48 48 56 61 64 68 69 68 64 66 73 74 71 71 67 62 62 61 60 59 58 59 58 57 56 54 51 48 47 45 44 44 45 44 43 42 42 43 42 39 36 36 39 43 46 43 44 49 52 53 55 56
25 24 20 21 21 21 22 22 23 23 22 23 22 22 22 21 21 23 23 21 19 25 31 27 25 26 25 24 24 26 32 36 33 32 36 38 42 48 53 57 57 58 57 55 53 52 53 60 64 66 69 70 71 69 69 74 76 73 70 66 63 64 64 62 57 55 57 58 57 55 52 50 48 49 50 47 45 45 43 42 40 40 41 42 40 39 38 36 37 38 38 40 43 47 51 53 55
25 22 20 22 23 23 24 24 24 26 24 22 23 26 25 22 22 22 24 25 24 31 35 29 27 29 28 28 28 27 29 35 36 33 36 43 48 49 53 58 60 60 60 60 59 56 57 62 65 65 67 70 72 72 72 73 74 73 69 66 65 67 69 64 56 56 57 57 55 52 51 50 48 52 55 52 50 48 42 39 39 37 38 38 38 39 39 37 36 34 35 37 38 42 47 50 53
24 22 22 24 26 26 27 27 27 30 28 22 23 28 28 25 22 20 26 33 34 34 32 30 30 30 29 29 28 28 30 34 37 37 41 48 50 49 52 57 58 60 62 63 64 62 60 62 63 63 65 70 73 72 73 74 73 73 70 68 68 70 69 63 56 56 56 55 54 52 53 53 51 53 53 50 50 47 39 37 38 36 35 35 36 39 40 40 39 37 36 37 38 41 45 48 51
24 23 25 29 31 31 31 31 32 32 29 26 27 29 30 26 20 22 31 34 32 30 30 31 33 31 30 30 27 28 32 36 39 43 46 48 48 48 51 56 58 62 63 64 67 66 62 62 63 62 63 69 73 71 74 75 74 76 73 68 68 70 67 60 56 56 56 57 56 57 57 57 56 53 50 48 44 41 37 38 40 37 33 33 35 39 41 41 40 41 41 40 42 44 45 48 51
25 26 29 32 33 35 36 34 34 31 29 31 30 28 31 26 21 28 36 34 29 30 31 32 34 34 32 30 29 29 34 38 40 45 47 45 45 44 45 51 58 64 66 66 67 66 64 64 64 63 63 67 72 73 75 78 79 80 77 70 68 68 65 60 60 59 60 62 62 62 62 61 59 55 52 50 44 41 41 42 41 38 35 34 34 36 39 40 41 44 45 45 47 48 48 50 53
27 28 32 33 32 37 37 32 30 29 30 34 32 30 29 23 25 34 33 30 29 30 32 34 36 36 35 33 34 34 34 35 38 42 45 43 44 43 41 44 49 59 68 71 71 69 66 67 69 67 65 65 72 76 77 82 86 85 78 73 71 70 65 63 64 63 65 68 67 65 64 64 62 56 54 52 47 45 45 45 43 41 38 35 34 34 35 37 39 44 49 49 49 49 47 49 52
30 30 32 33 32 36 37 33 31 30 34 38 35 32 28 26 35 39 33 30 31 32 35 37 39 40 40 39 41 43 38 35 38 42 44 44 44 43 44 47 46 52 63 68 71 73 71 71 72 71 70 69 74 82 83 82 86 85 75 69 69 68 65 65 65 63 65 70 70 67 67 66 62 59 58 53 48 48 46 44 44 45 41 36 36 35 33 33 33 40 51 51 47 45 43 46 50
33 31 32 34 32 34 36 37 37 36 36 39 38 33 29 31 38 36 32 33 34 36 38 39 42 45 45 44 47 49 44 41 42 43 46 47 46 45 46 51 51 51 58 61 63 70 73 71 70 73 78 78 77 82 84 82 81 79 72 66 66 66 66 67 63 61 64 69 70 68 68 67 64 64 59 49 47 49 47 46 48 47 42 38 37 35 33 32 32 38 47 46 41 41 41 44 47
34 33 32 32 31 33 37 39 39 36 35 37 36 32 29 33 39 38 38 38 37 40 42 41 45 48 48 48 49 48 45 46 46 46 50 52 52 52 50 51 52 51 56 60 61 68 73 70 69 71 75 78 78 80 84 84 79 75 71 67 66 66 67 67 62 60 65 68 70 70 68 67 67 65 56 46 46 48 48 51 53 47 41 39 38 37 35 31 34 43 47 43 38 36 36 38 41
35 36 33 32 33 33 35 39 41 38 36 36 35 34 31 33 42 48 51 50 46 44 44 45 47 49 51 50 50 49 48 48 48 49 54 55 56 58 54 52 51 50 55 61 63 68 71 70 69 71 72 76 79 78 81 82 79 74 72 70 68 67 68 68 63 64 68 70 71 71 70 69 69 65 56 48 48 49 51 55 54 48 42 40 40 39 35 29 34 46 48 45 41 35 35 37 37
33 36 36 37 39 37 36 38 39 40 39 37 37 36 31 31 42 54 59 59 54 48 48 51 52 53 54 53 52 52 52 52 52 54 56 57 59 60 58 56 55 54 56 61 64 68 71 71 72 73 76 78 77 74 75 79 79 76 75 73 71 69 70 68 67 69 72 72 72 71 72 72 70 67 58 52 52 56 58 58 55 51 46 43 42 39 33 27 32 44 47 45 42 37 36 38 35
31 33 35 38 40 41 44 43 39 40 40 40 41 39 37 41 48 53 57 60 59 54 53 55 57 57 56 55 54 54 54 56 57 58 59 60 61 63 64 62 58 57 59 62 65 70 76 77 76 75 73 74 78 78 77 80 81 78 76 76 73 71 71 69 68 71 73 73 73 73 74 73 71 68 62 58 59 61 62 61 57 53 49 47 45 40 34 28 30 40 45 44 42 40 43 42 39
34 34 34 36 38 39 43 44 40 40 42 44 44 41 45 51 47 43 50 58 62 59 57 60 60 59 58 56 56 57 58 59 57 56 58 61 63 64 65 64 61 61 64 66 67 70 78 81 79 74 66 67 76 79 78 82 83 79 78 78 75 72 72 72 71 72 74 74 75 75 75 75 73 70 65 63 63 62 63 61 57 54 52 50 45 39 35 33 31 34 37 37 36 38 42 43 42
40 41 37 39 41 40 41 42 40 38 39 43 45 44 51 55 46 42 47 54 60 59 60 64 64 63 63 62 61 60 60 59 57 55 54 58 62 64 65 65 62 62 64 67 68 70 76 79 79 73 65 66 72 74 78 83 83 80 81 80 77 73 73 75 75 74 72 72 72 73 75 76 74 70 68 68 66 62 64 63 58 57 57 53 46 38 35 37 36 33 32 33 34 35 36 35 35